[[{"header":{"parameterUnit":"m.s-1","parameterCategory":1,"la1":30.2992,"la2":30.254,"lo1":-89.0895,"lo2":-89.0443,"dy":0.0025,"dx":0.0025,"nx":19,"ny":19,"refTime":"2026-03-09T09:00:00:Z","depth":0,"parameterNumber":2,"parameterNumberName":"U-component_of_WINDS"},"data":[0,0,0,-0.3028,-0.3027,-0.3,-0.3,-0.2967,-0.2967,0,0,0,0,0,0,0,0,0,0,0,-0.3037,-0.3037,-0.3028,-0.3027,-0.3,-0.3,-0.2967,-0.2967,0,0,0,0,0,0,0,0,0,0,0,-0.3038,-0.3037,-0.3037,-0.3027,-0.3,-0.3,-0.2967,-0.2987,0,0,0,0,0,0,0,0,0,0,-0.3013,-0.3023,-0.3037,-0.3037,-0.3027,-0.3,-0.3,-0.2988,-0.2986,-0.298,0,-0.2976,0,-0.2971,-0.2965,-0.2964,0,0,0,-0.3026,-0.3025,-0.3016,-0.3037,-0.3027,-0.3,-0.3012,-0.2987,-0.2984,-0.2977,-0.2975,-0.2974,-0.297,-0.2964,-0.2964,-0.2936,-0.2936,0,0,-0.3028,-0.3033,-0.3018,-0.3015,-0.3019,-0.3013,-0.3011,-0.2985,-0.2983,-0.2975,-0.2973,-0.297,-0.2964,-0.2964,-0.2937,-0.2936,0,0,0,-0.3033,-0.3034,-0.3026,-0.3016,-0.3011,-0.3012,-0.301,-0.2984,-0.2981,-0.2973,-0.2969,-0.2964,-0.2964,-0.2937,-0.2937,-0.2938,0,0,0,-0.3034,-0.3037,-0.3027,-0.303,-0.3012,-0.2997,-0.301,-0.2983,-0.298,-0.2969,-0.2964,-0.2963,-0.2937,-0.2937,-0.2938,-0.2938,0,0,0,-0.3039,-0.3038,-0.3034,-0.303,-0.3019,-0.2998,-0.2993,-0.2982,-0.2978,-0.2964,-0.2963,-0.2937,-0.2937,-0.2938,-0.2938,-0.2933,0,0,0,-0.3046,-0.3036,-0.3034,-0.3022,-0.3019,-0.2999,-0.2993,-0.2978,-0.2967,-0.2964,-0.2937,-0.2937,-0.2938,-0.2938,-0.2933,-0.2929,-0.2928,0,0,-0.3036,-0.3035,-0.3027,-0.3025,-0.3007,-0.3003,-0.2984,-0.2969,-0.2962,-0.2945,-0.2945,-0.2938,-0.2938,-0.2933,-0.2919,-0.2918,0,0,0,-0.3026,-0.3021,-0.3015,-0.3004,-0.2992,-0.2982,-0.2968,-0.2963,-0.2948,-0.2955,-0.2934,-0.2934,-0.2931,-0.2929,-0.2928,-0.2925,-0.2936,-0.2936,-0.2936,-0.3021,-0.3013,-0.3,-0.2989,-0.2979,-0.2966,-0.2957,-0.2947,-0.2942,-0.2937,-0.2932,-0.2925,-0.2923,-0.2923,-0.2919,-0.2929,-0.2929,-0.2929,-0.2929,-0.3007,-0.2998,-0.2992,-0.2977,-0.2969,-0.2957,-0.2943,-0.294,-0.2927,-0.2928,-0.2925,-0.2927,-0.2922,-0.2919,-0.293,-0.293,-0.293,-0.2929,-0.2929,-0.3003,-0.2998,-0.2991,-0.2975,-0.2963,-0.2953,-0.2941,-0.2934,-0.2927,-0.2924,-0.2918,-0.2918,-0.2917,-0.2921,-0.2921,-0.2921,-0.2921,-0.2921,-0.2921,-0.3002,-0.2994,-0.2985,-0.2971,-0.2964,-0.2953,-0.2939,-0.2931,-0.2921,-0.2917,-0.2917,-0.2913,-0.2923,-0.2926,-0.2921,-0.2921,-0.2921,-0.2921,-0.2921,-0.2991,-0.2993,-0.2978,-0.2971,-0.2954,-0.2943,-0.2935,-0.292,-0.2912,-0.2907,-0.2903,-0.2911,-0.2909,-0.291,-0.2912,-0.2905,-0.2905,-0.2905,-0.2905,-0.2989,-0.2987,-0.2971,-0.2959,-0.2947,-0.2937,-0.2922,-0.2911,-0.29,-0.2895,-0.2895,-0.2897,-0.2898,-0.2895,-0.2896,-0.2898,-0.2887,-0.2887,-0.2887,-0.2982,-0.2978,-0.2967,-0.2956,-0.2942,-0.2931,-0.2916,-0.2903,-0.289,-0.2886,-0.2891,-0.2891,-0.2895,-0.2897,-0.2893,-0.2895,-0.2899,0,0]},{"header":{"parameterUnit":"m.s-1","parameterCategory":1,"la1":30.2992,"la2":30.254,"lo1":-89.0895,"lo2":-89.0443,"dy":0.0025,"dx":0.0025,"nx":19,"ny":19,"refTime":"2026-03-09T09:00:00:Z","depth":0,"parameterNumber":3,"parameterNumberName":"V-component_of_WINDS"},"data":[0,0,0,0.7604,0.7604,0.7594,0.7594,0.7602,0.7602,0,0,0,0,0,0,0,0,0,0,0,0.7618,0.7619,0.7604,0.7604,0.7594,0.7594,0.7602,0.7602,0,0,0,0,0,0,0,0,0,0,0,0.7618,0.7619,0.7619,0.7604,0.7594,0.7594,0.7602,0.7602,0,0,0,0,0,0,0,0,0,0,0.7608,0.7632,0.7618,0.7619,0.7604,0.7594,0.7594,0.7602,0.7602,0.7615,0,0.7628,0,0.7615,0.7604,0.7604,0,0,0,0.7595,0.7632,0.7619,0.7619,0.7604,0.7594,0.7596,0.7601,0.7602,0.7615,0.7628,0.7628,0.7616,0.7604,0.7604,0.7706,0.7707,0,0,0.7596,0.7623,0.7619,0.762,0.7622,0.7597,0.7596,0.7601,0.7618,0.7628,0.7628,0.7616,0.7604,0.7604,0.7706,0.7707,0,0,0,0.7603,0.7624,0.761,0.762,0.7617,0.7596,0.7596,0.7617,0.7611,0.7628,0.7616,0.7604,0.7604,0.7705,0.7706,0.7777,0,0,0,0.7603,0.7628,0.7611,0.7627,0.7617,0.7617,0.7612,0.761,0.761,0.7616,0.7604,0.7605,0.7703,0.7705,0.7773,0.7807,0,0,0,0.7615,0.7629,0.7631,0.7628,0.7625,0.7616,0.761,0.761,0.7603,0.7604,0.7605,0.7703,0.7705,0.7769,0.78,0.7843,0,0,0,0.7635,0.7693,0.7633,0.7693,0.7626,0.766,0.7609,0.7633,0.7642,0.7604,0.7704,0.7706,0.7768,0.7797,0.7839,0.7885,0.7906,0,0,0.7724,0.7705,0.7739,0.7684,0.7737,0.7659,0.7722,0.7704,0.7679,0.7699,0.7701,0.7774,0.78,0.7842,0.8012,0.8029,0,0,0,0.7776,0.7801,0.7808,0.7819,0.7807,0.78,0.777,0.7764,0.7779,0.7695,0.7799,0.7814,0.7838,0.7858,0.7873,0.7892,0.7716,0.7716,0.7716,0.794,0.7906,0.796,0.7926,0.7936,0.7905,0.7911,0.7897,0.7858,0.7884,0.789,0.7997,0.8023,0.8033,0.8054,0.791,0.791,0.791,0.7911,0.8068,0.8099,0.8048,0.8082,0.8046,0.8074,0.8047,0.802,0.8042,0.7989,0.8008,0.7956,0.8053,0.8069,0.7916,0.7915,0.7914,0.7914,0.7913,0.8174,0.8182,0.8174,0.8187,0.82,0.8163,0.8187,0.8152,0.812,0.8139,0.8143,0.8142,0.8138,0.8143,0.8144,0.8144,0.8144,0.8145,0.8145,0.8287,0.8275,0.83,0.8294,0.8297,0.8296,0.8267,0.8269,0.8263,0.8236,0.8236,0.8197,0.8068,0.8038,0.815,0.8149,0.8149,0.8148,0.8148,0.8432,0.8394,0.8432,0.8436,0.8427,0.8444,0.84,0.8408,0.8405,0.8418,0.8375,0.8284,0.8263,0.8251,0.8226,0.838,0.838,0.838,0.838,0.8522,0.8508,0.8541,0.8549,0.8552,0.8517,0.8563,0.8542,0.8514,0.851,0.8482,0.8445,0.8435,0.8419,0.8404,0.838,0.857,0.8571,0.8571,0.8611,0.8596,0.8641,0.8613,0.8604,0.8598,0.8641,0.8653,0.8613,0.8578,0.8507,0.8499,0.8439,0.842,0.8385,0.8361,0.8316,0,0]}]]